Time,TemperatureF,DewpointF,PressureIn,WindDirection,WindDirectionDegrees,WindSpeedMPH,WindSpeedGustMPH,Humidity,HourlyPrecipIn,Conditions,Clouds,dailyrainin,SoftwareType,DateUTC
2013-01-07 00:02:00,24.0,21.0,-100.00,SSE,150,3.0,3.0,89,-99.99,,,-99.99,,2013-01-07 06:02:00,
2013-01-07 00:12:00,23.0,21.0,-100.00,SSE,160,3.0,3.0,90,-99.99,,,-99.99,,2013-01-07 06:12:00,
2013-01-07 00:22:00,23.0,21.0,-100.00,SSE,160,3.0,3.0,90,-99.99,,,-99.99,,2013-01-07 06:22:00,
2013-01-07 00:42:00,24.0,21.0,-100.00,SE,135,0.0,0.0,91,-99.99,,,-99.99,,2013-01-07 06:42:00,
2013-01-07 00:52:00,24.0,22.0,-100.00,South,175,3.0,3.0,91,-99.99,,,-99.99,,2013-01-07 06:52:00,
2013-01-07 01:02:00,24.0,22.0,-100.00,South,175,3.0,3.0,91,-99.99,,,-99.99,,2013-01-07 07:02:00,
2013-01-07 01:12:00,23.0,21.0,-100.00,SSE,165,2.0,3.0,92,-99.99,,,-99.99,,2013-01-07 07:12:00,
2013-01-07 01:22:00,22.0,20.0,-100.00,SSE,160,3.0,3.0,92,-99.99,,,-99.99,,2013-01-07 07:22:00,
2013-01-07 01:33:00,22.0,20.0,-100.00,SSE,160,3.0,3.0,92,-99.99,,,-99.99,,2013-01-07 07:33:00,
2013-01-07 01:42:00,22.0,20.0,-100.00,SE,145,1.0,1.0,92,-99.99,,,-99.99,,2013-01-07 07:42:00,
2013-01-07 01:53:00,22.0,20.0,-100.00,North,355,0.0,0.0,92,-99.99,,,-99.99,,2013-01-07 07:53:00,
2013-01-07 02:03:00,22.0,20.0,-100.00,North,355,0.0,0.0,92,-99.99,,,-99.99,,2013-01-07 08:03:00,
2013-01-07 02:12:00,22.0,20.0,-100.00,NNW,345,0.0,0.0,92,-99.99,,,-99.99,,2013-01-07 08:12:00,
2013-01-07 02:22:00,23.0,21.0,-100.00,NNW,345,0.0,0.0,92,-99.99,,,-99.99,,2013-01-07 08:22:00,
2013-01-07 02:32:00,23.0,21.0,-100.00,NNW,345,0.0,0.0,92,-99.99,,,-99.99,,2013-01-07 08:32:00,
2013-01-07 02:42:00,23.0,21.0,-100.00,SSE,160,1.0,1.0,93,-99.99,,,-99.99,,2013-01-07 08:42:00,
2013-01-07 02:53:00,23.0,21.0,-100.00,SSW,200,1.0,1.0,93,-99.99,,,-99.99,,2013-01-07 08:53:00,
2013-01-07 03:02:00,23.0,21.0,-100.00,SSW,200,1.0,1.0,93,-99.99,,,-99.99,,2013-01-07 09:02:00,
2013-01-07 03:12:00,23.0,21.0,-100.00,SSE,165,1.0,1.0,93,-99.99,,,-99.99,,2013-01-07 09:12:00,
2013-01-07 03:22:00,22.0,21.0,-100.00,SSE,160,1.0,1.0,93,-99.99,,,-99.99,,2013-01-07 09:22:00,
2013-01-07 03:32:00,22.0,21.0,-100.00,SSE,160,1.0,1.0,93,-99.99,,,-99.99,,2013-01-07 09:32:00,
2013-01-07 03:42:00,22.0,20.0,-100.00,SSE,165,0.0,0.0,93,-99.99,,,-99.99,,2013-01-07 09:42:00,
2013-01-07 03:52:00,21.0,20.0,-100.00,SSE,160,3.0,3.0,93,-99.99,,,-99.99,,2013-01-07 09:52:00,
2013-01-07 04:02:00,21.0,20.0,-100.00,SSE,160,3.0,3.0,93,-99.99,,,-99.99,,2013-01-07 10:02:00,
2013-01-07 04:12:00,21.0,19.0,-100.00,SSE,155,3.0,3.0,93,-99.99,,,-99.99,,2013-01-07 10:12:00,
2013-01-07 04:22:00,21.0,19.0,-100.00,SE,140,1.0,1.0,93,-99.99,,,-99.99,,2013-01-07 10:22:00,
2013-01-07 04:32:00,21.0,19.0,-100.00,SE,140,1.0,1.0,93,-99.99,,,-99.99,,2013-01-07 10:32:00,
2013-01-07 04:42:00,21.0,19.0,-100.00,SSE,150,0.0,1.0,93,-99.99,,,-99.99,,2013-01-07 10:42:00,
2013-01-07 04:52:00,20.0,19.0,-100.00,SSE,150,1.0,1.0,93,-99.99,,,-99.99,,2013-01-07 10:52:00,
2013-01-07 05:02:00,20.0,19.0,-100.00,SSE,150,1.0,1.0,93,-99.99,,,-99.99,,2013-01-07 11:02:00,
2013-01-07 05:12:00,21.0,19.0,-100.00,South,170,1.0,1.0,93,-99.99,,,-99.99,,2013-01-07 11:12:00,
2013-01-07 05:23:00,21.0,19.0,-100.00,SSE,160,4.0,4.0,93,-99.99,,,-99.99,,2013-01-07 11:23:00,
2013-01-07 05:33:00,21.0,19.0,-100.00,SSE,160,4.0,4.0,93,-99.99,,,-99.99,,2013-01-07 11:33:00,
2013-01-07 05:43:00,21.0,19.0,-100.00,SSE,160,4.0,4.0,93,-99.99,,,-99.99,,2013-01-07 11:43:00,
2013-01-07 05:53:00,20.0,18.0,-100.00,SSE,165,4.0,4.0,93,-99.99,,,-99.99,,2013-01-07 11:53:00,
2013-01-07 06:03:00,20.0,18.0,-100.00,SSE,165,4.0,4.0,93,-99.99,,,-99.99,,2013-01-07 12:03:00,
2013-01-07 06:12:00,20.0,18.0,-100.00,SSE,155,3.0,3.0,93,-99.99,,,-99.99,,2013-01-07 12:12:00,
2013-01-07 06:22:00,20.0,18.0,-100.00,SSE,160,4.0,4.0,93,-99.99,,,-99.99,,2013-01-07 12:22:00,
2013-01-07 06:33:00,20.0,18.0,-100.00,SSE,160,4.0,4.0,93,-99.99,,,-99.99,,2013-01-07 12:33:00,
2013-01-07 06:43:00,20.0,18.0,-100.00,South,170,4.0,6.0,93,-99.99,,,-99.99,,2013-01-07 12:43:00,
2013-01-07 06:53:00,20.0,18.0,-100.00,SSE,155,4.0,6.0,93,-99.99,,,-99.99,,2013-01-07 12:53:00,
2013-01-07 07:02:00,20.0,18.0,-100.00,SSE,155,4.0,6.0,93,-99.99,,,-99.99,,2013-01-07 13:02:00,
2013-01-07 07:12:00,20.0,18.0,-100.00,SSE,160,6.0,6.0,93,-99.99,,,-99.99,,2013-01-07 13:12:00,
2013-01-07 07:23:00,20.0,18.0,-100.00,SSE,160,6.0,6.0,93,-99.99,,,-99.99,,2013-01-07 13:23:00,
2013-01-07 07:33:00,20.0,18.0,-100.00,SSE,160,6.0,6.0,93,-99.99,,,-99.99,,2013-01-07 13:33:00,
2013-01-07 07:42:00,21.0,19.0,-100.00,SSE,155,6.0,6.0,93,-99.99,,,-99.99,,2013-01-07 13:42:00,
2013-01-07 07:53:00,21.0,20.0,-100.00,SSE,165,4.0,4.0,93,-99.99,,,-99.99,,2013-01-07 13:53:00,
2013-01-07 08:03:00,21.0,20.0,-100.00,SSE,165,4.0,4.0,93,-99.99,,,-99.99,,2013-01-07 14:03:00,
2013-01-07 08:12:00,21.0,20.0,-100.00,SSE,155,3.0,3.0,93,-99.99,,,-99.99,,2013-01-07 14:12:00,
2013-01-07 08:22:00,21.0,20.0,-100.00,SSE,150,3.0,4.0,93,-99.99,,,-99.99,,2013-01-07 14:22:00,
2013-01-07 08:33:00,21.0,20.0,-100.00,SSE,150,3.0,4.0,93,-99.99,,,-99.99,,2013-01-07 14:33:00,
2013-01-07 08:42:00,21.0,20.0,-100.00,SSE,160,4.0,6.0,93,-99.99,,,-99.99,,2013-01-07 14:42:00,
2013-01-07 08:53:00,22.0,21.0,-100.00,SSE,160,6.0,6.0,93,-99.99,,,-99.99,,2013-01-07 14:53:00,
2013-01-07 09:03:00,22.0,21.0,-100.00,SSE,160,6.0,6.0,93,-99.99,,,-99.99,,2013-01-07 15:03:00,
2013-01-07 09:12:00,25.0,23.0,-100.00,SSE,150,6.0,8.0,93,-99.99,,,-99.99,,2013-01-07 15:12:00,
2013-01-07 09:22:00,26.0,24.0,-100.00,SSE,150,9.0,9.0,93,-99.99,,,-99.99,,2013-01-07 15:22:00,
2013-01-07 09:33:00,26.0,24.0,-100.00,SSE,150,9.0,9.0,93,-99.99,,,-99.99,,2013-01-07 15:33:00,
2013-01-07 09:43:00,27.0,25.0,-100.00,SSE,160,10.0,10.0,93,-99.99,,,-99.99,,2013-01-07 15:43:00,
2013-01-07 09:53:00,28.0,25.0,-100.00,SSE,165,11.0,14.0,89,-99.99,,,-99.99,,2013-01-07 15:53:00,
2013-01-07 10:02:00,28.0,25.0,-100.00,SSE,165,11.0,14.0,89,-99.99,,,-99.99,,2013-01-07 16:02:00,
2013-01-07 10:12:00,29.0,25.0,-100.00,South,170,10.0,12.0,85,-99.99,,,-99.99,,2013-01-07 16:12:00,
2013-01-07 10:22:00,30.0,25.0,-100.00,South,170,10.0,12.0,81,-99.99,,,-99.99,,2013-01-07 16:22:00,
2013-01-07 10:33:00,30.0,25.0,-100.00,South,170,10.0,12.0,81,-99.99,,,-99.99,,2013-01-07 16:33:00,
2013-01-07 10:43:00,31.0,26.0,-100.00,South,170,8.0,9.0,80,-99.99,,,-99.99,,2013-01-07 16:43:00,
2013-01-07 10:53:00,32.0,26.0,-100.00,SSE,165,11.0,12.0,78,-99.99,,,-99.99,,2013-01-07 16:53:00,
2013-01-07 11:02:00,32.0,26.0,-100.00,SSE,165,11.0,12.0,78,-99.99,,,-99.99,,2013-01-07 17:02:00,
2013-01-07 11:12:00,33.0,25.0,-100.00,South,175,12.0,14.0,73,-99.99,,,-99.99,,2013-01-07 17:12:00,
2013-01-07 11:23:00,34.0,25.0,-100.00,South,170,14.0,16.0,69,-99.99,,,-99.99,,2013-01-07 17:23:00,
2013-01-07 11:33:00,34.0,25.0,-100.00,South,170,14.0,16.0,69,-99.99,,,-99.99,,2013-01-07 17:33:00,
2013-01-07 11:42:00,34.0,24.0,-100.00,South,170,14.0,16.0,68,-99.99,,,-99.99,,2013-01-07 17:42:00,
2013-01-07 11:53:00,34.0,25.0,-100.00,South,170,14.0,16.0,67,-99.99,,,-99.99,,2013-01-07 17:53:00,
2013-01-07 12:00:00,37.0,25.0,-100.00,South,175,12.0,14.0,61,-99.99,,,-99.99,,2013-01-07 18:00:00,
2013-01-07 12:03:00,34.0,25.0,-100.00,South,170,14.0,16.0,67,-99.99,,,-99.99,,2013-01-07 18:03:00,
2013-01-07 12:12:00,35.0,25.0,-100.00,SSE,165,14.0,16.0,65,-99.99,,,-99.99,,2013-01-07 18:12:00,
2013-01-07 12:23:00,36.0,25.0,-100.00,South,170,14.0,16.0,63,-99.99,,,-99.99,,2013-01-07 18:23:00,
2013-01-07 12:33:00,36.0,25.0,-100.00,South,170,14.0,16.0,63,-99.99,,,-99.99,,2013-01-07 18:33:00,
2013-01-07 12:42:00,37.0,25.0,-100.00,South,175,12.0,14.0,61,-99.99,,,-99.99,,2013-01-07 18:42:00,
2013-01-07 12:53:00,37.0,25.0,-100.00,South,175,12.0,14.0,61,-99.99,,,-99.99,,2013-01-07 18:53:00,
2013-01-07 13:12:00,39.0,24.0,-100.00,South,170,9.0,10.0,55,-99.99,,,-99.99,,2013-01-07 19:12:00,
2013-01-07 13:23:00,40.0,24.0,-100.00,South,170,9.0,10.0,51,-99.99,,,-99.99,,2013-01-07 19:23:00,
2013-01-07 13:33:00,40.0,24.0,-100.00,South,170,9.0,10.0,51,-99.99,,,-99.99,,2013-01-07 19:33:00,
2013-01-07 13:43:00,40.0,24.0,-100.00,South,170,9.0,10.0,51,-99.99,,,-99.99,,2013-01-07 19:43:00,
2013-01-07 13:53:00,41.0,23.0,-100.00,SSE,155,9.0,10.0,48,-99.99,,,-99.99,,2013-01-07 19:53:00,
2013-01-07 14:03:00,41.0,23.0,-100.00,SSE,155,9.0,10.0,48,-99.99,,,-99.99,,2013-01-07 20:03:00,
2013-01-07 14:12:00,41.0,23.0,-100.00,SSE,165,10.0,12.0,48,-99.99,,,-99.99,,2013-01-07 20:12:00,
2013-01-07 14:23:00,41.0,21.0,-100.00,SSE,165,11.0,14.0,44,-99.99,,,-99.99,,2013-01-07 20:23:00,
2013-01-07 14:30:00,42.0,21.0,-100.00,South,175,10.0,14.0,43,-99.99,,,-99.99,,2013-01-07 20:30:00,
2013-01-07 14:33:00,41.0,21.0,-100.00,SSE,165,11.0,14.0,44,-99.99,,,-99.99,,2013-01-07 20:33:00,
2013-01-07 14:42:00,42.0,21.0,-100.00,SSE,165,12.0,14.0,44,-99.99,,,-99.99,,2013-01-07 20:42:00,
2013-01-07 14:53:00,42.0,21.0,-100.00,South,175,12.0,14.0,42,-99.99,,,-99.99,,2013-01-07 20:53:00,
2013-01-07 15:03:00,42.0,21.0,-100.00,South,175,12.0,14.0,42,-99.99,,,-99.99,,2013-01-07 21:03:00,
2013-01-07 15:12:00,42.0,21.0,-100.00,South,175,10.0,14.0,43,-99.99,,,-99.99,,2013-01-07 21:12:00,
2013-01-07 15:23:00,42.0,21.0,-100.00,South,175,10.0,14.0,43,-99.99,,,-99.99,,2013-01-07 21:23:00,
2013-01-07 15:43:00,42.0,21.0,-100.00,South,170,12.0,14.0,43,-99.99,,,-99.99,,2013-01-07 21:43:00,
2013-01-07 15:53:00,42.0,20.0,-100.00,SSE,165,11.0,12.0,42,-99.99,,,-99.99,,2013-01-07 21:53:00,
2013-01-07 16:03:00,42.0,20.0,-100.00,SSE,165,11.0,12.0,42,-99.99,,,-99.99,,2013-01-07 22:03:00,
2013-01-07 16:12:00,41.0,20.0,-100.00,South,175,9.0,10.0,42,-99.99,,,-99.99,,2013-01-07 22:12:00,
2013-01-07 16:22:00,41.0,19.0,-100.00,SSE,165,10.0,12.0,41,-99.99,,,-99.99,,2013-01-07 22:22:00,
2013-01-07 16:33:00,41.0,19.0,-100.00,SSE,165,10.0,12.0,41,-99.99,,,-99.99,,2013-01-07 22:33:00,
2013-01-07 16:42:00,41.0,20.0,-100.00,South,175,8.0,10.0,43,-99.99,,,-99.99,,2013-01-07 22:42:00,
2013-01-07 16:53:00,41.0,20.0,-100.00,SSE,160,6.0,9.0,44,-99.99,,,-99.99,,2013-01-07 22:53:00,
2013-01-07 17:02:00,41.0,20.0,-100.00,SSE,160,6.0,9.0,44,-99.99,,,-99.99,,2013-01-07 23:02:00,
2013-01-07 17:12:00,41.0,20.0,-100.00,SSE,160,6.0,9.0,44,-99.99,,,-99.99,,2013-01-07 23:12:00,
2013-01-07 17:22:00,39.0,21.0,-100.00,South,180,2.0,3.0,47,-99.99,,,-99.99,,2013-01-07 23:22:00,
2013-01-07 17:30:00,37.0,22.0,-100.00,SW,235,1.0,3.0,54,-99.99,,,-99.99,,2013-01-07 23:30:00,
2013-01-07 17:33:00,39.0,21.0,-100.00,South,180,2.0,3.0,47,-99.99,,,-99.99,,2013-01-07 23:33:00,
2013-01-07 17:43:00,39.0,21.0,-100.00,South,180,2.0,3.0,47,-99.99,,,-99.99,,2013-01-07 23:43:00,
2013-01-07 17:53:00,37.0,21.0,-100.00,WNW,285,0.0,0.0,52,-99.99,,,-99.99,,2013-01-07 23:53:00,
2013-01-07 18:02:00,37.0,21.0,-100.00,WNW,285,0.0,0.0,52,-99.99,,,-99.99,,2013-01-08 00:02:00,
2013-01-07 18:12:00,37.0,22.0,-100.00,SW,235,1.0,3.0,54,-99.99,,,-99.99,,2013-01-08 00:12:00,
2013-01-07 18:22:00,37.0,22.0,-100.00,SW,235,1.0,3.0,54,-99.99,,,-99.99,,2013-01-08 00:22:00,
2013-01-07 18:53:00,33.0,22.0,-100.00,SE,140,1.0,1.0,64,-99.99,,,-99.99,,2013-01-08 00:53:00,
2013-01-07 19:03:00,33.0,22.0,-100.00,SE,140,1.0,1.0,64,-99.99,,,-99.99,,2013-01-08 01:03:00,
2013-01-07 19:12:00,32.0,23.0,-100.00,SSE,165,3.0,3.0,68,-99.99,,,-99.99,,2013-01-08 01:12:00,
2013-01-07 19:22:00,32.0,24.0,-100.00,SSE,150,2.0,3.0,71,-99.99,,,-99.99,,2013-01-08 01:22:00,
2013-01-07 19:33:00,32.0,24.0,-100.00,SSE,150,2.0,3.0,71,-99.99,,,-99.99,,2013-01-08 01:33:00,
2013-01-07 19:42:00,31.0,24.0,-100.00,SE,145,3.0,3.0,75,-99.99,,,-99.99,,2013-01-08 01:42:00,
2013-01-07 19:52:00,31.0,24.0,-100.00,NW,325,0.0,0.0,77,-99.99,,,-99.99,,2013-01-08 01:52:00,
2013-01-07 20:02:00,31.0,24.0,-100.00,NW,325,0.0,0.0,77,-99.99,,,-99.99,,2013-01-08 02:02:00,
2013-01-07 20:12:00,32.0,25.0,-100.00,SSE,155,0.0,1.0,77,-99.99,,,-99.99,,2013-01-08 02:12:00,
2013-01-07 20:22:00,31.0,25.0,-100.00,SSE,155,2.0,3.0,78,-99.99,,,-99.99,,2013-01-08 02:22:00,
2013-01-07 20:33:00,31.0,25.0,-100.00,SSE,155,2.0,3.0,78,-99.99,,,-99.99,,2013-01-08 02:33:00,
2013-01-07 20:42:00,30.0,24.0,-100.00,SE,145,3.0,3.0,80,-99.99,,,-99.99,,2013-01-08 02:42:00,
2013-01-07 20:53:00,28.0,24.0,-100.00,SE,135,1.0,2.0,82,-99.99,,,-99.99,,2013-01-08 02:53:00,
2013-01-07 21:03:00,28.0,24.0,-100.00,SE,135,1.0,2.0,82,-99.99,,,-99.99,,2013-01-08 03:03:00,
2013-01-07 21:12:00,28.0,24.0,-100.00,East,95,1.0,1.0,84,-99.99,,,-99.99,,2013-01-08 03:12:00,
2013-01-07 21:22:00,28.0,24.0,-100.00,SE,135,1.0,1.0,85,-99.99,,,-99.99,,2013-01-08 03:22:00,
2013-01-07 21:32:00,28.0,24.0,-100.00,SE,135,1.0,1.0,85,-99.99,,,-99.99,,2013-01-08 03:32:00,
2013-01-07 21:43:00,28.0,24.0,-100.00,SE,125,0.0,0.0,86,-99.99,,,-99.99,,2013-01-08 03:43:00,
2013-01-07 21:53:00,27.0,24.0,-100.00,NNW,335,0.0,0.0,87,-99.99,,,-99.99,,2013-01-08 03:53:00,
2013-01-07 22:02:00,27.0,24.0,-100.00,NNW,335,0.0,0.0,87,-99.99,,,-99.99,,2013-01-08 04:02:00,
2013-01-07 22:12:00,27.0,24.0,-100.00,NNW,345,0.0,0.0,87,-99.99,,,-99.99,,2013-01-08 04:12:00,
2013-01-07 22:22:00,27.0,24.0,-100.00,NNW,345,0.0,0.0,88,-99.99,,,-99.99,,2013-01-08 04:22:00,
2013-01-07 22:32:00,26.0,23.0,-100.00,South,175,0.0,0.0,89,-99.99,,,-99.99,,2013-01-08 04:32:00,
2013-01-07 22:42:00,26.0,23.0,-100.00,South,175,0.0,0.0,89,-99.99,,,-99.99,,2013-01-08 04:42:00,
2013-01-07 22:52:00,27.0,24.0,-100.00,SSE,155,2.0,3.0,89,-99.99,,,-99.99,,2013-01-08 04:52:00,
2013-01-07 23:03:00,27.0,24.0,-100.00,SSE,155,2.0,3.0,89,-99.99,,,-99.99,,2013-01-08 05:03:00,
2013-01-07 23:12:00,27.0,25.0,-100.00,South,175,1.0,2.0,90,-99.99,,,-99.99,,2013-01-08 05:12:00,
2013-01-07 23:22:00,27.0,25.0,-100.00,NNW,335,1.0,1.0,91,-99.99,,,-99.99,,2013-01-08 05:22:00,
2013-01-07 23:30:00,28.0,26.0,-100.00,SSE,160,1.0,1.0,91,-99.99,,,-99.99,,2013-01-08 05:30:00,
2013-01-07 23:33:00,28.0,26.0,-100.00,NW,315,0.0,0.0,91,-99.99,,,-99.99,,2013-01-08 05:33:00,
2013-01-07 23:42:00,28.0,26.0,-100.00,NW,315,0.0,0.0,91,-99.99,,,-99.99,,2013-01-08 05:42:00,
2013-01-07 23:53:00,28.0,25.0,-100.00,NE,50,0.0,0.0,91,-99.99,,,-99.99,,2013-01-08 05:53:00,